Showing default

FLOCK 4Q 35, 58309

Orbit data source: Space-Track

FLOCK 4Q 35, 58309 is a payload satellite owned by Planet (US) in SSO that was launched on Sat, 11 Nov 2023 UTC via an FALCON 9 launch vehicle from the Air Force Western Test Range (AFWTR). Payload-class satellites include a variety of spacecraft equipped with specific instruments for various scientific and technological missions. These include communications satellites like Starlink; space stations such as the ISS; scientific satellites like the Hubble; Earth observation satellites from companies like Planet Labs, Umbra, and HawkEye 360; GPS; miniature CubeSats for education and research; and military/defense satellites.

Loading next visibility...
Identifier
58309, 2023-174BF
Orbit
SSO
Country
Flag of USUS
Related business
Manufacturer
Planet
Mission
Operational Commercial Imaging
Bus & Motor
CUBESAT 3U, Unknown motor
Mass
5.7 kg wet, 5.7 kg dry
Launch date (UTC)
2023-11-11 (2 years ago)
Launch vehicle
FALCON 9
Launch site
Air Force Western Test Range (AFWTR)
Object type
Payload
Rocket body
Debris
Shape & HBR
Box + 2 Pan, 1.0 m
Radar Cross Section
0.072 m², Medium (>0.1 m² and < 1m²)

Expand to show TLE details & history
Last TLE update: 1 day ago

TLE from 1 day ago
0 FLOCK 4Q 35
1 58309U 23174BF  25300.66329343  .00024927  00000-0  60194-3 0  9995
2 58309  97.4073  22.0932 0007663 263.7248  96.3126 15.41145207109815
Epoch: 2025-10-27T15:55Z
TLE epoch observation values (Epoch: 2025-10-27T15:55:08.552Z)
Latitude
Longitude
107.04566°
Altitude
446.426 km
Speed
7.644 km/s
True Right ascension
01h 28m 22s
True Declination
0° 00' 00"
Sunlit
Object was in full shadow at epoch
Visualization orbit readout
Latitude
Unknown
Longitude
Unknown
Altitude
Unknown
Speed
Unknown
Apparent Right ascension
Unknown
Apparent Declination
Unknown
Sunlit
N/A
Visualization observer readout
Local Sidereal Time
11:59:31
Azimuth
Unknown
Elevation
Unknown
Doppler factor
Unknown
Orbital elements
Apogee altitude
444.89 km
Perigee altitude
434.441 km
Semi-major axis
6,817.803 km
Eccentricity
0.00077
Inclination
97.4073°
RAAN
22.0932°
Arg. of periapsis
263.7248°
True anomaly
96.39987°
Mean anomaly
96.3126°
Eccentric anomaly
96.35624°
Mean motion
3.85546 °/min
Orbital period
93.37 mins
BSTAR
0.00060194
Loading maneuver chart data...
Computing Atmospheric mass density...
Loading historical data...
Loading historical data...
Loading historical data...
Loading historical data...
Loading historical data...
Loading historical data...
Loading historical data...

Documentation

Showing up to 5 results
|